Date,TemperatureHighF,TemperatureAvgF,TemperatureLowF,DewpointHighF,DewpointAvgF,DewpointLowF,HumidityHigh,HumidityAvg,HumidityLow,PressureMaxIn,PressureMinIn,WindSpeedMaxMPH,WindSpeedAvgMPH,GustSpeedMaxMPH,PrecipitationSumIn
2013-11-1,69,62,46,59,52,42,87,72,46,29.76,29.61,31,6,31,0.21
2013-11-2,57,49,42,46,40,33,88,71,44,30.04,29.74,15,4,15,0.00
2013-11-3,52,43,32,38,34,28,88,72,52,30.41,30.04,12,3,12,0.00
2013-11-4,56,43,31,34,31,28,88,63,39,30.54,30.41,13,3,13,0.00
2013-11-5,63,46,38,40,33,25,88,64,25,30.56,30.42,14,4,14,0.00
2013-11-6,72,54,41,53,45,37,87,74,49,30.42,30.10,16,2,16,0.00
2013-11-7,54,47,38,48,40,30,87,78,63,30.22,30.01,20,4,20,0.25
2013-11-8,47,37,28,30,26,22,86,67,38,30.39,30.22,16,4,16,0.00
2013-11-9,54,38,25,32,27,22,88,67,37,30.40,30.26,14,3,14,0.00
2013-11-10,60,46,35,40,31,21,80,59,28,30.34,30.19,20,6,20,0.00
2013-11-11,63,41,24,33,25,17,88,59,18,30.38,30.19,10,2,10,0.00
2013-11-12,47,34,25,38,26,17,85,73,55,30.56,30.14,20,6,20,0.01
2013-11-13,38,28,20,21,18,16,87,67,48,30.67,30.55,14,4,14,0.00
2013-11-14,52,31,16,25,18,13,89,65,23,30.58,30.39,15,2,15,0.00
2013-11-15,56,39,23,43,30,18,87,73,30,30.41,30.26,10,2,10,0.16
2013-11-16,59,50,43,52,45,40,87,84,76,30.29,30.17,14,3,14,0.00
2013-11-17,69,54,42,57,48,37,87,80,59,30.19,29.83,12,2,12,0.14
2013-11-18,59,53,43,54,40,27,88,63,34,30.08,29.82,20,7,20,0.22
2013-11-19,47,40,32,29,27,24,78,60,40,30.32,30.07,16,4,16,0.00
2013-11-20,51,41,34,29,27,25,72,60,38,30.45,30.30,13,6,13,0.00
2013-11-21,64,47,35,49,40,28,87,75,58,30.51,30.35,13,4,13,0.00
2013-11-22,60,53,47,54,49,43,87,85,78,30.37,30.14,12,2,12,0.15
2013-11-23,53,42,28,49,34,16,88,75,54,30.32,30.15,20,7,20,0.00
2013-11-24,29,23,16,16,8,0,81,55,33,30.60,30.32,18,6,18,0.00
2013-11-25,39,28,15,26,14,9,87,57,36,30.60,30.35,10,3,10,0.00
2013-11-26,42,37,29,38,33,25,88,86,84,30.34,29.74,18,4,18,1.59
2013-11-27,39,28,22,36,24,13,89,82,67,30.30,29.75,17,7,17,0.06
2013-11-28,35,24,16,23,18,13,89,77,58,30.58,30.30,11,3,11,0.00
2013-11-29,44,29,16,28,21,13,90,76,50,30.70,30.58,9,2,9,0.01
2013-11-30,43,34,27,30,25,21,79,70,58,30.65,30.39,14,6,14,0.00